Starlink 33760

operational
NORAD ID: 63764 Int'l Des: 2025-089 Owner: SPXS Country: US Constellation: starlink
LEOCIRCULAR

关于 Starlink 33760

正在加载描述...

实时位置

正在加载3D地球...

即将过境

高度历史

Altitude vs Time

uPlot chart will show altitude changes over time

两行轨道根数

1 63764U 25089P 25305.97348195 .00048539 00000-0 17619-2 0 9996
2 63764 42.9988 46.6271 0000809 339.4337 20.6482 15.27579117 29427
Epoch: Nov 1, 2025 • Age: 37 hours

当前状态

高度 495.0 km
速度 7.62 km/s
星下点 -41.45°S, 94.01°E
发射日期 Apr 29, 2025
运行时间 0.5 years
类型 internet

技术详情

分类 Payload
质量 575.00 kg
干质量 530.00 kg
总质量 575.00 kg
长度 0.30 m
直径 4.10 m
跨度 29.00 m
形状 Box + pan
制造商 SPXS
平台类型 Starlink V2MO
阶段状态 In Orbit
所有者/国家 SPXS/US

大型星座

Loading constellations...